| time (UTC) | temp F | wind direction | speed MPH | gust MPH | rain 1hr in | rain 24hr in | rain mn in | humidity % | barometer mb |
| 20260905104034 | 56 | 313 | 5.0 | 15.0 | 0.00 | 0.00 | 0.00 | 80 | 996.6 |
| 20260905103539 | 56 | 257 | 7.0 | 15.0 | 0.00 | 0.00 | 0.00 | 79 | 996.6 |
| 20260905103045 | 57 | 311 | 4.0 | 12.0 | 0.00 | 0.00 | 0.00 | 79 | 996.6 |
| 20260905102535 | 56 | 18 | 4.0 | 14.0 | 0.00 | 0.00 | 0.00 | 78 | 996.4 |
| 20260905102035 | 56 | 261 | 4.0 | 14.0 | 0.00 | 0.00 | 0.00 | 79 | 996.3 |
| 20260905101555 | 57 | 320 | 6.0 | 14.0 | 0.00 | 0.00 | 0.00 | 79 | 996.3 |
| 20260905101034 | 58 | 336 | 3.0 | 11.0 | 0.00 | 0.00 | 0.00 | 78 | 996.2 |
| 20260905100534 | 57 | 22 | 4.0 | 11.0 | 0.00 | 0.00 | 0.00 | 81 | 996.1 |
| 20260905100052 | 57 | 320 | 4.0 | 12.0 | 0.00 | 0.00 | 0.00 | 79 | 996.2 |
| 20260905095532 | 58 | 19 | 6.0 | 15.0 | 0.00 | 0.00 | 0.00 | 77 | 996.0 |
| 20260905095033 | 58 | 63 | 7.0 | 16.0 | 0.00 | 0.00 | 0.00 | 77 | 996.0 |
| 20260905094652 | 58 | 346 | 5.0 | 18.0 | 0.00 | 0.00 | 0.00 | 78 | 995.9 |
| 20260905094034 | 57 | 9 | 6.0 | 18.0 | 0.00 | 0.00 | 0.00 | 81 | 995.9 |
| 20260905093535 | 56 | 27 | 7.0 | 13.0 | 0.00 | 0.00 | 0.00 | 83 | 995.9 |
| 20260905093104 | 55 | 14 | 5.0 | 12.0 | 0.00 | 0.00 | 0.00 | 85 | 995.9 |
| 20260905092537 | 54 | 68 | 6.0 | 17.0 | 0.00 | 0.00 | 0.00 | 86 | 995.9 |
| 20260905092033 | 54 | 360 | 6.0 | 17.0 | 0.00 | 0.00 | 0.00 | 86 | 995.8 |
| 20260905091556 | 55 | 1 | 8.0 | 17.0 | 0.00 | 0.00 | 0.00 | 85 | 995.7 |
| 20260905091035 | 55 | 14 | 3.0 | 8.0 | 0.00 | 0.00 | 0.00 | 91 | 995.7 |
| 20260905090535 | 54 | 52 | 3.0 | 15.0 | 0.00 | 0.00 | 0.00 | 90 | 995.7 |
| 20260905090053 | 55 | 349 | 7.0 | 15.0 | 0.00 | 0.00 | 0.00 | 87 | 995.6 |
| 20260905085531 | 55 | 325 | 6.0 | 12.0 | 0.00 | 0.00 | 0.00 | 86 | 995.6 |
| 20260905085036 | 55 | 9 | 1.0 | 9.0 | 0.00 | 0.00 | 0.00 | 89 | 995.6 |
| 20260905084601 | 55 | 359 | 3.0 | 9.0 | 0.00 | 0.00 | 0.00 | 88 | 995.6 |
| 20260905084032 | 55 | 311 | 2.0 | 9.0 | 0.00 | 0.00 | 0.00 | 89 | 995.5 |
| 20260905083531 | 54 | 339 | 3.0 | 12.0 | 0.00 | 0.00 | 0.00 | 89 | 995.5 |
| 20260905083045 | 54 | 339 | 5.0 | 12.0 | 0.00 | 0.00 | 0.00 | 90 | 995.5 |
| 20260905082534 | 54 | 41 | 4.0 | 10.0 | 0.00 | 0.00 | 0.00 | 92 | 995.4 |
| 20260905082035 | 54 | 351 | 3.0 | 10.0 | 0.00 | 0.00 | 0.00 | 93 | 995.5 |
| 20260905081552 | 54 | 358 | 2.0 | 6.0 | 0.00 | 0.00 | 0.00 | 94 | 995.5 |
| 20260905081034 | 53 | 31 | 0.0 | 8.0 | 0.00 | 0.00 | 0.00 | 95 | 995.5 |
| 20260905080534 | 53 | 345 | 2.0 | 8.0 | 0.00 | 0.00 | 0.00 | 95 | 995.5 |
| 20260905080105 | 52 | 4 | 1.0 | 4.0 | 0.00 | 0.00 | 0.00 | 96 | 995.4 |
| 20260905075535 | 52 | 269 | 2.0 | 9.0 | 0.00 | 0.00 | 0.00 | 96 | 995.4 |
| 20260905075035 | 52 | 268 | 2.0 | 9.0 | 0.00 | 0.00 | 0.00 | 96 | 995.5 |
| 20260905074559 | 51 | 0 | 0.0 | 4.0 | 0.00 | 0.00 | 0.00 | 96 | 995.5 |
| 20260905074032 | 51 | 317 | 1.0 | 4.0 | 0.00 | 0.00 | 0.00 | 97 | 995.4 |
| 20260905073534 | 51 | 238 | 1.0 | 3.0 | 0.00 | 0.00 | 0.00 | 96 | 995.4 |
| 20260905073047 | 52 | 250 | 1.0 | 3.0 | 0.00 | 0.00 | 0.00 | 96 | 995.4 |
| 20260905072534 | 51 | 309 | 1.0 | 3.0 | 0.00 | 0.00 | 0.00 | 96 | 995.5 |
| 20260905072034 | 50 | 299 | 1.0 | 4.0 | 0.00 | 0.00 | 0.00 | 96 | 995.4 |
| 20260905071554 | 50 | 253 | 2.0 | 6.0 | 0.00 | 0.00 | 0.00 | 96 | 995.3 |
| 20260905071034 | 50 | 0 | 1.0 | 6.0 | 0.00 | 0.00 | 0.00 | 96 | 995.3 |
| 20260905070532 | 49 | 274 | 3.0 | 6.0 | 0.00 | 0.00 | 0.00 | 96 | 995.3 |
| 20260905070055 | 49 | 282 | 2.0 | 4.0 | 0.00 | 0.00 | 0.00 | 96 | 995.3 |
| 20260905065535 | 48 | 263 | 1.0 | 4.0 | 0.00 | 0.00 | 0.00 | 96 | 995.3 |
| 20260905065035 | 49 | 269 | 2.0 | 4.0 | 0.00 | 0.00 | 0.00 | 96 | 995.1 |
| 20260905064551 | 48 | 294 | 2.0 | 4.0 | 0.00 | 0.00 | 0.00 | 96 | 995.2 |
| 20260905064032 | 48 | 301 | 1.0 | 4.0 | 0.00 | 0.00 | 0.00 | 96 | 995.0 |
| 20260905063532 | 48 | 272 | 2.0 | 4.0 | 0.00 | 0.00 | 0.00 | 96 | 995.1 |
| 20260905063057 | 47 | 297 | 2.0 | 4.0 | 0.00 | 0.00 | 0.00 | 96 | 995.1 |
| 20260905062536 | 47 | 281 | 2.0 | 4.0 | 0.00 | 0.00 | 0.00 | 96 | 995.0 |
| 20260905062035 | 46 | 0 | 0.0 | 4.0 | 0.00 | 0.00 | 0.00 | 96 | 995.1 |
| 20260905061602 | 46 | 255 | 2.0 | 4.0 | 0.00 | 0.00 | 0.00 | 96 | 995.1 |
| 20260905061038 | 46 | 0 | 0.0 | 4.0 | 0.00 | 0.00 | 0.00 | 96 | 995.0 |
| 20260905060530 | 46 | 276 | 1.0 | 6.0 | 0.00 | 0.00 | 0.00 | 96 | 994.9 |
| 20260905055529 | 46 | 261 | 2.0 | 6.0 | 0.00 | 0.00 | 0.00 | 96 | 994.9 |
| 20260905055032 | 46 | 284 | 1.0 | 3.0 | 0.00 | 0.00 | 0.00 | 96 | 994.9 |
| 20260905054600 | 45 | 273 | 2.0 | 3.0 | 0.00 | 0.00 | 0.00 | 96 | 994.9 |
| 20260905054030 | 45 | 292 | 0.0 | 3.0 | 0.00 | 0.00 | 0.00 | 96 | 994.9 |
| 20260905053530 | 45 | 0 | 0.0 | 0.0 | 0.00 | 0.00 | 0.00 | 96 | 994.9 |
| 20260905053051 | 44 | 0 | 0.0 | 0.0 | 0.00 | 0.00 | 0.00 | 96 | 994.9 |
| 20260905052530 | 44 | 0 | 0.0 | 0.0 | 0.00 | 0.00 | 0.00 | 96 | 994.9 |
| 20260905052033 | 43 | 0 | 0.0 | 0.0 | 0.00 | 0.00 | 0.00 | 96 | 994.9 |
| 20260905051603 | 43 | 0 | 0.0 | 0.0 | 0.00 | 0.00 | 0.00 | 96 | 994.9 |
| 20260905051030 | 42 | 0 | 0.0 | 0.0 | 0.00 | 0.00 | 0.00 | 96 | 994.8 |
| 20260905050533 | 42 | 0 | 0.0 | 0.0 | 0.00 | 0.00 | 0.00 | 96 | 994.9 |
| 20260905050044 | 41 | 0 | 0.0 | 0.0 | 0.00 | 0.00 | 0.00 | 96 | 994.9 |
| 20260905045530 | 41 | 0 | 0.0 | 0.0 | 0.00 | 0.00 | 0.00 | 96 | 995.0 |
| 20260905045033 | 41 | 0 | 0.0 | 0.0 | 0.00 | 0.00 | 0.00 | 95 | 994.9 |
| 20260905044552 | 41 | 0 | 0.0 | 0.0 | 0.00 | 0.00 | 0.00 | 96 | 994.9 |
| 20260905044032 | 40 | 0 | 0.0 | 0.0 | 0.00 | 0.00 | 0.00 | 95 | 995.0 |
| 20260905043529 | 40 | 0 | 0.0 | 0.0 | 0.00 | 0.00 | 0.00 | 95 | 994.9 |
| 20260905043049 | 40 | 0 | 0.0 | 0.0 | 0.00 | 0.00 | 0.00 | 96 | 995.0 |
| 20260905042530 | 40 | 0 | 0.0 | 0.0 | 0.00 | 0.00 | 0.00 | 95 | 995.0 |
| 20260905042029 | 39 | 0 | 0.0 | 0.0 | 0.00 | 0.00 | 0.00 | 95 | 994.9 |
| 20260905041548 | 39 | 0 | 0.0 | 0.0 | 0.00 | 0.00 | 0.00 | 95 | 994.9 |
| 20260905041031 | 39 | 0 | 0.0 | 0.0 | 0.00 | 0.00 | 0.00 | 95 | 995.0 |
| 20260905040533 | 39 | 0 | 0.0 | 0.0 | 0.00 | 0.00 | 0.00 | 95 | 995.0 |
| 20260905040106 | 38 | 0 | 0.0 | 0.0 | 0.00 | 0.00 | 0.00 | 95 | 995.0 |
| 20260905035533 | 38 | 0 | 0.0 | 0.0 | 0.00 | 0.00 | 0.00 | 95 | 994.8 |
| 20260905035029 | 38 | 0 | 0.0 | 0.0 | 0.00 | 0.00 | 0.00 | 95 | 994.8 |
| 20260905034550 | 38 | 0 | 0.0 | 0.0 | 0.00 | 0.00 | 0.00 | 95 | 994.8 |
| 20260905034031 | 38 | 0 | 0.0 | 0.0 | 0.00 | 0.00 | 0.00 | 95 | 994.8 |
| 20260905033532 | 37 | 0 | 0.0 | 0.0 | 0.00 | 0.00 | 0.00 | 95 | 994.7 |
| 20260905033052 | 37 | 0 | 0.0 | 0.0 | 0.00 | 0.00 | 0.00 | 94 | 994.9 |
| 20260905032533 | 37 | 0 | 0.0 | 0.0 | 0.00 | 0.00 | 0.00 | 94 | 994.8 |
| 20260905032032 | 37 | 0 | 0.0 | 0.0 | 0.00 | 0.00 | 0.00 | 94 | 994.8 |
| 20260905031552 | 37 | 0 | 0.0 | 0.0 | 0.00 | 0.00 | 0.00 | 94 | 994.8 |
| 20260905031030 | 37 | 0 | 0.0 | 0.0 | 0.00 | 0.00 | 0.00 | 94 | 994.8 |
| 20260905030529 | 37 | 0 | 0.0 | 0.0 | 0.00 | 0.00 | 0.00 | 94 | 994.7 |
| 20260905025537 | 37 | 0 | 0.0 | 0.0 | 0.00 | 0.00 | 0.00 | 94 | 994.8 |
| 20260905025031 | 36 | 0 | 0.0 | 0.0 | 0.00 | 0.00 | 0.00 | 94 | 994.7 |
| 20260905024600 | 36 | 0 | 0.0 | 0.0 | 0.00 | 0.00 | 0.00 | 94 | 994.9 |
| 20260905024036 | 36 | 0 | 0.0 | 0.0 | 0.00 | 0.00 | 0.00 | 94 | 994.8 |
| 20260905023534 | 36 | 0 | 0.0 | 0.0 | 0.00 | 0.00 | 0.00 | 94 | 994.8 |
| 20260905023055 | 36 | 0 | 0.0 | 0.0 | 0.00 | 0.00 | 0.00 | 94 | 994.8 |
| 20260905022531 | 36 | 0 | 0.0 | 0.0 | 0.00 | 0.00 | 0.00 | 94 | 994.8 |
| 20260905022033 | 36 | 0 | 0.0 | 0.0 | 0.00 | 0.00 | 0.00 | 94 | 994.8 |
| 20260905021555 | 36 | 0 | 0.0 | 0.0 | 0.00 | 0.00 | 0.00 | 94 | 994.8 |
| 20260905021033 | 36 | 0 | 0.0 | 0.0 | 0.00 | 0.00 | 0.00 | 94 | 994.8 |
| 20260905020533 | 36 | 0 | 0.0 | 0.0 | 0.00 | 0.00 | 0.00 | 94 | 994.7 |
| 20260905020052 | 36 | 0 | 0.0 | 0.0 | 0.00 | 0.00 | 0.00 | 93 | 994.7 |
| 20260905015533 | 36 | 0 | 0.0 | 0.0 | 0.00 | 0.00 | 0.00 | 93 | 994.7 |
| 20260905015032 | 36 | 0 | 0.0 | 0.0 | 0.00 | 0.00 | 0.00 | 93 | 994.7 |
| 20260905014550 | 36 | 0 | 0.0 | 0.0 | 0.00 | 0.00 | 0.00 | 93 | 994.8 |
| 20260905014034 | 36 | 0 | 0.0 | 0.0 | 0.00 | 0.00 | 0.00 | 93 | 994.8 |
| 20260905013532 | 36 | 0 | 0.0 | 0.0 | 0.00 | 0.00 | 0.00 | 93 | 994.9 |
| 20260905013106 | 36 | 0 | 0.0 | 0.0 | 0.00 | 0.00 | 0.00 | 93 | 994.9 |
| 20260905012532 | 36 | 0 | 0.0 | 0.0 | 0.00 | 0.00 | 0.00 | 93 | 994.8 |
| 20260905012035 | 36 | 0 | 0.0 | 0.0 | 0.00 | 0.00 | 0.00 | 93 | 994.9 |
| 20260905011556 | 36 | 0 | 0.0 | 0.0 | 0.00 | 0.00 | 0.00 | 93 | 994.9 |
| 20260905011034 | 36 | 0 | 0.0 | 0.0 | 0.00 | 0.00 | 0.00 | 93 | 994.9 |
| 20260905010534 | 36 | 0 | 0.0 | 0.0 | 0.00 | 0.00 | 0.00 | 93 | 995.0 |
| 20260905010058 | 36 | 0 | 0.0 | 0.0 | 0.00 | 0.00 | 0.00 | 93 | 994.9 |
| 20260905005533 | 36 | 0 | 0.0 | 0.0 | 0.00 | 0.00 | 0.00 | 93 | 994.9 |
| 20260905005034 | 36 | 0 | 0.0 | 0.0 | 0.00 | 0.00 | 0.00 | 93 | 995.0 |
| 20260905004548 | 36 | 0 | 0.0 | 0.0 | 0.00 | 0.00 | 0.00 | 92 | 995.0 |
| 20260905004035 | 36 | 0 | 0.0 | 0.0 | 0.00 | 0.00 | 0.00 | 92 | 995.0 |
| 20260905003535 | 36 | 0 | 0.0 | 0.0 | 0.00 | 0.00 | 0.00 | 92 | 995.0 |
| 20260905003055 | 37 | 0 | 0.0 | 0.0 | 0.00 | 0.00 | 0.00 | 92 | 995.0 |
| 20260905002533 | 37 | 0 | 0.0 | 0.0 | 0.00 | 0.00 | 0.00 | 92 | 995.1 |
| 20260905002038 | 37 | 0 | 0.0 | 0.0 | 0.00 | 0.00 | 0.00 | 92 | 995.0 |
| 20260905001553 | 37 | 0 | 0.0 | 0.0 | 0.00 | 0.00 | 0.00 | 92 | 995.0 |
| 20260905001033 | 37 | 0 | 0.0 | 0.0 | 0.00 | 0.00 | 0.00 | 92 | 995.1 |
| 20260905000535 | 37 | 0 | 0.0 | 0.0 | 0.00 | 0.00 | 0.00 | 92 | 995.0 |
| 20260905000055 | 37 | 0 | 0.0 | 0.0 | 0.00 | 0.00 | 0.00 | 92 | 995.1 |
| 20260904235531 | 38 | 0 | 0.0 | 0.0 | 0.00 | 0.00 | 0.00 | 92 | 995.1 |
| 20260904235034 | 38 | 0 | 0.0 | 0.0 | 0.00 | 0.00 | 0.00 | 92 | 995.1 |
| 20260904234548 | 38 | 0 | 0.0 | 0.0 | 0.00 | 0.00 | 0.00 | 93 | 995.3 |
| 20260904234034 | 38 | 0 | 0.0 | 0.0 | 0.00 | 0.00 | 0.00 | 92 | 995.2 |
| 20260904233536 | 38 | 0 | 0.0 | 0.0 | 0.00 | 0.00 | 0.00 | 92 | 995.2 |
| 20260904233053 | 38 | 0 | 0.0 | 0.0 | 0.00 | 0.00 | 0.00 | 93 | 995.3 |
| 20260904232534 | 38 | 0 | 0.0 | 0.0 | 0.00 | 0.00 | 0.00 | 93 | 995.3 |
| 20260904232033 | 38 | 0 | 0.0 | 0.0 | 0.00 | 0.00 | 0.00 | 92 | 995.3 |
| 20260904231551 | 39 | 0 | 0.0 | 0.0 | 0.00 | 0.00 | 0.00 | 92 | 995.4 |
| 20260904231033 | 39 | 0 | 0.0 | 0.0 | 0.00 | 0.00 | 0.00 | 92 | 995.4 |
| 20260904230533 | 39 | 0 | 0.0 | 0.0 | 0.00 | 0.00 | 0.00 | 92 | 995.4 |
| 20260904230106 | 39 | 0 | 0.0 | 0.0 | 0.00 | 0.00 | 0.00 | 92 | 995.5 |
| 20260904225535 | 39 | 0 | 0.0 | 0.0 | 0.00 | 0.00 | 0.00 | 92 | 995.5 |
| 20260904225035 | 39 | 0 | 0.0 | 0.0 | 0.00 | 0.00 | 0.00 | 92 | 995.5 |
| 20260904224547 | 39 | 0 | 0.0 | 0.0 | 0.00 | 0.00 | 0.00 | 92 | 995.6 |
| 20260904224034 | 39 | 0 | 0.0 | 0.0 | 0.00 | 0.00 | 0.00 | 92 | 995.5 |
| 20260904223534 | 39 | 0 | 0.0 | 0.0 | 0.00 | 0.00 | 0.00 | 92 | 995.5 |
| 20260904223103 | 39 | 0 | 0.0 | 0.0 | 0.00 | 0.00 | 0.00 | 92 | 995.6 |
| 20260904222537 | 40 | 0 | 0.0 | 0.0 | 0.00 | 0.00 | 0.00 | 91 | 995.5 |
| 20260904222032 | 40 | 0 | 0.0 | 0.0 | 0.00 | 0.00 | 0.00 | 92 | 995.5 |
| 20260904221615 | 40 | 0 | 0.0 | 0.0 | 0.00 | 0.00 | 0.00 | 91 | 995.6 |
| 20260904221034 | 40 | 0 | 0.0 | 0.0 | 0.00 | 0.00 | 0.00 | 91 | 995.6 |
| 20260904220533 | 40 | 0 | 0.0 | 0.0 | 0.00 | 0.00 | 0.00 | 91 | 995.8 |
| 20260904220052 | 40 | 0 | 0.0 | 0.0 | 0.00 | 0.00 | 0.00 | 91 | 995.8 |
| 20260904215533 | 41 | 0 | 0.0 | 0.0 | 0.00 | 0.00 | 0.00 | 91 | 995.8 |
| 20260904215034 | 41 | 0 | 0.0 | 0.0 | 0.00 | 0.00 | 0.00 | 91 | 995.8 |
| 20260904214552 | 41 | 0 | 0.0 | 0.0 | 0.00 | 0.00 | 0.00 | 91 | 995.8 |
| 20260904214034 | 41 | 0 | 0.0 | 0.0 | 0.00 | 0.00 | 0.00 | 91 | 995.9 |
| 20260904213534 | 41 | 0 | 0.0 | 0.0 | 0.00 | 0.00 | 0.00 | 91 | 995.8 |
| 20260904213059 | 41 | 0 | 0.0 | 0.0 | 0.00 | 0.00 | 0.00 | 91 | 995.8 |
| 20260904212535 | 42 | 0 | 0.0 | 0.0 | 0.00 | 0.00 | 0.00 | 91 | 995.9 |
| 20260904212034 | 42 | 0 | 0.0 | 0.0 | 0.00 | 0.00 | 0.00 | 91 | 995.8 |
| 20260904211552 | 42 | 0 | 0.0 | 0.0 | 0.00 | 0.00 | 0.00 | 91 | 995.9 |
| 20260904211033 | 42 | 0 | 0.0 | 0.0 | 0.00 | 0.00 | 0.00 | 91 | 995.8 |
| 20260904210534 | 42 | 0 | 0.0 | 0.0 | 0.00 | 0.00 | 0.00 | 91 | 995.9 |
| 20260904210048 | 42 | 0 | 0.0 | 0.0 | 0.00 | 0.00 | 0.00 | 91 | 995.9 |
| 20260904205534 | 43 | 0 | 0.0 | 0.0 | 0.00 | 0.01 | 0.00 | 90 | 995.9 |
| 20260904205032 | 43 | 0 | 0.0 | 0.0 | 0.00 | 0.01 | 0.00 | 90 | 996.0 |
| 20260904204553 | 43 | 0 | 0.0 | 0.0 | 0.00 | 0.01 | 0.00 | 90 | 996.0 |
| 20260904204033 | 43 | 0 | 0.0 | 0.0 | 0.00 | 0.01 | 0.00 | 90 | 996.1 |
| 20260904203536 | 43 | 0 | 0.0 | 0.0 | 0.00 | 0.01 | 0.00 | 90 | 996.0 |
| 20260904203053 | 44 | 0 | 0.0 | 0.0 | 0.00 | 0.01 | 0.00 | 90 | 996.0 |
| 20260904202530 | 44 | 0 | 0.0 | 0.0 | 0.00 | 0.01 | 0.00 | 90 | 996.0 |
| 20260904202029 | 44 | 0 | 0.0 | 0.0 | 0.00 | 0.01 | 0.00 | 90 | 996.0 |
| 20260904201603 | 44 | 0 | 0.0 | 0.0 | 0.00 | 0.01 | 0.00 | 89 | 996.0 |
| 20260904201033 | 45 | 0 | 0.0 | 0.0 | 0.00 | 0.01 | 0.00 | 89 | 996.1 |
| 20260904200532 | 45 | 0 | 0.0 | 0.0 | 0.00 | 0.01 | 0.00 | 89 | 996.0 |
| 20260904200108 | 45 | 0 | 0.0 | 0.0 | 0.00 | 0.01 | 0.00 | 89 | 996.1 |
| 20260904195533 | 45 | 0 | 0.0 | 0.0 | 0.00 | 0.07 | 0.00 | 89 | 996.0 |
| 20260904195032 | 46 | 0 | 0.0 | 0.0 | 0.00 | 0.07 | 0.00 | 89 | 996.1 |
| 20260904194551 | 46 | 0 | 0.0 | 0.0 | 0.00 | 0.07 | 0.00 | 89 | 996.1 |
| 20260904194032 | 46 | 0 | 0.0 | 0.0 | 0.00 | 0.07 | 0.00 | 89 | 996.1 |
| 20260904193531 | 47 | 0 | 0.0 | 0.0 | 0.00 | 0.07 | 0.00 | 89 | 996.3 |
| 20260904193052 | 47 | 0 | 0.0 | 0.0 | 0.00 | 0.07 | 0.00 | 89 | 996.3 |
| 20260904192529 | 47 | 0 | 0.0 | 0.0 | 0.00 | 0.07 | 0.00 | 89 | 996.3 |
| 20260904192032 | 48 | 0 | 0.0 | 0.0 | 0.00 | 0.07 | 0.00 | 88 | 996.3 |
| 20260904191549 | 48 | 0 | 0.0 | 0.0 | 0.00 | 0.07 | 0.00 | 88 | 996.4 |
| 20260904191031 | 48 | 0 | 0.0 | 0.0 | 0.00 | 0.07 | 0.00 | 88 | 996.4 |
| 20260904190531 | 49 | 0 | 0.0 | 0.0 | 0.00 | 0.07 | 0.00 | 88 | 996.4 |
| 20260904190056 | 49 | 0 | 0.0 | 0.0 | 0.00 | 0.07 | 0.00 | 88 | 996.4 |
| 20260904185532 | 49 | 0 | 0.0 | 0.0 | 0.00 | 0.07 | 0.00 | 88 | 996.4 |
| 20260904185032 | 49 | 0 | 0.0 | 0.0 | 0.00 | 0.07 | 0.00 | 88 | 996.5 |
| 20260904184554 | 50 | 0 | 0.0 | 0.0 | 0.00 | 0.07 | 0.00 | 88 | 996.5 |
| 20260904184030 | 50 | 0 | 0.0 | 0.0 | 0.00 | 0.07 | 0.00 | 87 | 996.5 |
| 20260904183534 | 50 | 0 | 0.0 | 0.0 | 0.00 | 0.07 | 0.00 | 87 | 996.6 |
| 20260904183049 | 50 | 0 | 0.0 | 0.0 | 0.00 | 0.07 | 0.00 | 87 | 996.6 |
| 20260904182532 | 51 | 0 | 0.0 | 0.0 | 0.00 | 0.07 | 0.00 | 87 | 996.6 |
| 20260904182037 | 51 | 0 | 0.0 | 0.0 | 0.00 | 0.07 | 0.00 | 87 | 996.6 |
| 20260904181547 | 51 | 0 | 0.0 | 0.0 | 0.00 | 0.07 | 0.00 | 88 | 996.6 |
| 20260904181033 | 51 | 0 | 0.0 | 0.0 | 0.00 | 0.07 | 0.00 | 88 | 996.5 |
| 20260904180531 | 51 | 0 | 0.0 | 0.0 | 0.00 | 0.07 | 0.00 | 88 | 996.6 |
| 20260904180053 | 51 | 0 | 0.0 | 0.0 | 0.00 | 0.07 | 0.00 | 88 | 996.6 |
| 20260904175529 | 51 | 0 | 0.0 | 0.0 | 0.00 | 0.07 | 0.00 | 87 | 996.6 |
| 20260904175050 | 51 | 0 | 0.0 | 0.0 | 0.00 | 0.07 | 0.00 | 86 | 996.6 |
| 20260904174603 | 51 | 0 | 0.0 | 0.0 | 0.00 | 0.07 | 0.00 | 87 | 996.6 |
| 20260904174052 | 51 | 0 | 0.0 | 0.0 | 0.00 | 0.07 | 0.00 | 87 | 996.7 |
| 20260904173550 | 52 | 0 | 0.0 | 0.0 | 0.00 | 0.07 | 0.00 | 87 | 996.6 |
| 20260904173058 | 52 | 0 | 0.0 | 0.0 | 0.00 | 0.07 | 0.00 | 87 | 996.6 |
| 20260904172550 | 52 | 0 | 0.0 | 0.0 | 0.00 | 0.07 | 0.00 | 87 | 996.6 |
| 20260904172050 | 52 | 0 | 0.0 | 2.0 | 0.00 | 0.07 | 0.00 | 86 | 996.6 |
| 20260904171621 | 52 | 0 | 0.0 | 2.0 | 0.00 | 0.07 | 0.00 | 86 | 996.6 |
| 20260904171050 | 52 | 0 | 0.0 | 2.0 | 0.00 | 0.07 | 0.00 | 85 | 996.6 |
| 20260904170549 | 53 | 0 | 0.0 | 1.0 | 0.00 | 0.07 | 0.00 | 85 | 996.6 |
| 20260904170104 | 53 | 0 | 0.0 | 2.0 | 0.00 | 0.07 | 0.00 | 84 | 996.6 |
| 20260904165550 | 53 | 0 | 0.0 | 2.0 | 0.00 | 0.07 | 0.00 | 84 | 996.6 |
| 20260904165049 | 53 | 0 | 0.0 | 2.0 | 0.00 | 0.07 | 0.00 | 83 | 996.6 |
| 20260904164602 | 54 | 0 | 0.0 | 2.0 | 0.00 | 0.07 | 0.00 | 82 | 996.7 |
| 20260904164050 | 54 | 0 | 0.0 | 2.0 | 0.00 | 0.07 | 0.00 | 82 | 996.6 |
| 20260904163550 | 55 | 0 | 1.0 | 2.0 | 0.00 | 0.07 | 0.00 | 82 | 996.6 |
| 20260904163059 | 55 | 319 | 0.0 | 2.0 | 0.00 | 0.07 | 0.00 | 81 | 996.6 |
| 20260904162550 | 55 | 0 | 0.0 | 1.0 | 0.00 | 0.07 | 0.00 | 78 | 996.6 |
| 20260904162050 | 56 | 0 | 0.0 | 1.0 | 0.00 | 0.07 | 0.00 | 78 | 996.5 |
| 20260904161612 | 56 | 230 | 0.0 | 1.0 | 0.00 | 0.07 | 0.00 | 77 | 996.5 |
| 20260904161050 | 57 | 0 | 0.0 | 3.0 | 0.00 | 0.07 | 0.00 | 77 | 996.5 |
| 20260904160550 | 57 | 0 | 0.0 | 3.0 | 0.00 | 0.07 | 0.00 | 72 | 996.4 |
| 20260904160103 | 57 | 244 | 0.0 | 3.0 | 0.00 | 0.07 | 0.00 | 75 | 996.5 |
| 20260904155550 | 57 | 234 | 0.0 | 3.0 | 0.00 | 0.07 | 0.00 | 74 | 996.5 |
| 20260904155055 | 56 | 221 | 0.0 | 2.0 | 0.00 | 0.07 | 0.00 | 78 | 996.6 |
| 20260904154602 | 56 | 0 | 0.0 | 6.0 | 0.00 | 0.07 | 0.00 | 78 | 996.5 |
| 20260904154049 | 56 | 283 | 1.0 | 6.0 | 0.00 | 0.07 | 0.00 | 76 | 996.6 |
| 20260904153550 | 57 | 278 | 3.0 | 6.0 | 0.00 | 0.07 | 0.00 | 75 | 996.6 |
| 20260904153113 | 57 | 292 | 1.0 | 6.0 | 0.00 | 0.07 | 0.00 | 75 | 996.7 |
| 20260904152549 | 57 | 0 | 2.0 | 7.0 | 0.00 | 0.07 | 0.00 | 75 | 996.7 |
| 20260904152050 | 57 | 0 | 2.0 | 7.0 | 0.00 | 0.07 | 0.00 | 74 | 996.7 |
| 20260904151605 | 58 | 266 | 2.0 | 7.0 | 0.00 | 0.07 | 0.00 | 75 | 996.8 |
| 20260904151050 | 58 | 262 | 1.0 | 7.0 | 0.00 | 0.07 | 0.00 | 77 | 996.8 |
| 20260904150551 | 57 | 266 | 1.0 | 9.0 | 0.00 | 0.07 | 0.00 | 76 | 996.7 |
| 20260904150103 | 58 | 253 | 1.0 | 9.0 | 0.00 | 0.07 | 0.00 | 75 | 996.8 |
| 20260904145547 | 58 | 279 | 2.0 | 9.0 | 0.00 | 0.07 | 0.00 | 71 | 996.8 |
| 20260904145051 | 59 | 259 | 2.0 | 6.0 | 0.00 | 0.07 | 0.00 | 69 | 996.8 |
| 20260904144550 | 59 | 259 | 2.0 | 7.0 | 0.00 | 0.07 | 0.00 | 68 | 996.9 |
| 20260904144031 | 60 | 287 | 2.0 | 8.0 | 0.00 | 0.07 | 0.00 | 63 | 996.7 |
| 20260904143530 | 60 | 280 | 4.0 | 9.0 | 0.00 | 0.07 | 0.00 | 60 | 996.8 |
| 20260904143104 | 60 | 299 | 4.0 | 9.0 | 0.00 | 0.07 | 0.00 | 62 | 996.8 |
| 20260904142534 | 60 | 322 | 3.0 | 7.0 | 0.00 | 0.07 | 0.00 | 62 | 996.8 |
| 20260904142038 | 60 | 263 | 1.0 | 7.0 | 0.00 | 0.07 | 0.00 | 63 | 996.7 |
| 20260904141543 | 61 | 308 | 2.0 | 9.0 | 0.00 | 0.07 | 0.00 | 61 | 996.8 |
| 20260904141031 | 61 | 298 | 2.0 | 9.0 | 0.00 | 0.07 | 0.00 | 64 | 996.7 |
| 20260904140533 | 60 | 299 | 3.0 | 11.0 | 0.00 | 0.07 | 0.00 | 65 | 996.9 |
| 20260904140054 | 61 | 289 | 4.0 | 11.0 | 0.00 | 0.07 | 0.00 | 64 | 996.9 |
| 20260904135532 | 61 | 272 | 5.0 | 10.0 | 0.00 | 0.07 | 0.00 | 63 | 996.9 |
| 20260904135032 | 62 | 220 | 3.0 | 9.0 | 0.00 | 0.07 | 0.00 | 65 | 997.0 |
| 20260904134552 | 63 | 279 | 4.0 | 9.0 | 0.00 | 0.07 | 0.00 | 64 | 997.0 |
| 20260904134031 | 62 | 180 | 4.0 | 7.0 | 0.00 | 0.07 | 0.00 | 65 | 997.0 |
| 20260904133531 | 62 | 186 | 2.0 | 5.0 | 0.00 | 0.07 | 0.00 | 63 | 997.1 |
| 20260904133105 | 63 | 273 | 1.0 | 4.0 | 0.00 | 0.07 | 0.00 | 61 | 997.1 |
| 20260904132547 | 62 | 318 | 0.0 | 3.0 | 0.00 | 0.07 | 0.00 | 65 | 997.1 |
| 20260904132032 | 61 | 351 | 1.0 | 6.0 | 0.00 | 0.07 | 0.00 | 69 | 997.2 |
| 20260904131601 | 61 | 0 | 1.0 | 6.0 | 0.00 | 0.07 | 0.00 | 64 | 997.2 |
| 20260904131031 | 61 | 117 | 2.0 | 6.0 | 0.00 | 0.07 | 0.00 | 62 | 997.2 |
| 20260904130533 | 61 | 139 | 3.0 | 6.0 | 0.00 | 0.07 | 0.00 | 65 | 997.2 |
| 20260904130055 | 62 | 0 | 0.0 | 5.0 | 0.00 | 0.07 | 0.00 | 57 | 997.3 |
| 20260904125625 | 61 | 149 | 0.0 | 9.0 | 0.00 | 0.07 | 0.00 | 62 | 997.3 |
| 20260904125032 | 62 | 322 | 3.0 | 9.0 | 0.00 | 0.07 | 0.00 | 59 | 997.3 |
| 20260904124543 | 62 | 357 | 3.0 | 9.0 | 0.00 | 0.07 | 0.00 | 64 | 997.3 |
| 20260904124033 | 61 | 0 | 0.0 | 4.0 | 0.00 | 0.07 | 0.00 | 62 | 997.4 |
| 20260904123534 | 60 | 155 | 1.0 | 4.0 | 0.00 | 0.07 | 0.00 | 63 | 997.4 |
| 20260904123058 | 59 | 0 | 0.0 | 4.0 | 0.00 | 0.07 | 0.00 | 64 | 997.4 |
| 20260904122532 | 59 | 333 | 0.0 | 4.0 | 0.00 | 0.07 | 0.00 | 67 | 997.4 |
| 20260904122031 | 59 | 9 | 2.0 | 4.0 | 0.00 | 0.07 | 0.00 | 67 | 997.5 |
| 20260904121549 | 59 | 4 | 0.0 | 4.0 | 0.00 | 0.07 | 0.00 | 74 | 997.5 |
| 20260904121033 | 59 | 0 | 0.0 | 3.0 | 0.00 | 0.07 | 0.00 | 74 | 997.6 |
| 20260904120531 | 59 | 278 | 0.0 | 3.0 | 0.00 | 0.07 | 0.00 | 70 | 997.6 |
| 20260904120058 | 58 | 0 | 0.0 | 1.0 | 0.00 | 0.07 | 0.00 | 72 | 997.6 |
| 20260904115531 | 58 | 0 | 0.0 | 1.0 | 0.00 | 0.07 | 0.00 | 76 | 997.7 |
| 20260904115032 | 57 | 0 | 0.0 | 1.0 | 0.00 | 0.07 | 0.00 | 77 | 997.7 |
| 20260904114548 | 57 | 0 | 0.0 | 3.0 | 0.00 | 0.07 | 0.00 | 74 | 997.8 |
| 20260904114031 | 57 | 0 | 0.0 | 5.0 | 0.00 | 0.07 | 0.00 | 76 | 997.8 |
| 20260904113531 | 57 | 4 | 1.0 | 5.0 | 0.00 | 0.07 | 0.00 | 72 | 997.8 |
| 20260904113055 | 58 | 14 | 2.0 | 5.0 | 0.00 | 0.07 | 0.00 | 69 | 997.9 |
| 20260904112530 | 58 | 0 | 2.0 | 10.0 | 0.00 | 0.07 | 0.00 | 65 | 997.9 |
| 20260904112033 | 59 | 21 | 3.0 | 11.0 | 0.00 | 0.07 | 0.00 | 67 | 997.8 |
| 20260904111552 | 60 | 336 | 5.0 | 11.0 | 0.00 | 0.07 | 0.00 | 63 | 998.0 |
| 20260904111030 | 60 | 320 | 4.0 | 11.0 | 0.00 | 0.07 | 0.00 | 68 | 997.9 |
| 20260904110531 | 59 | 4 | 4.0 | 11.0 | 0.00 | 0.07 | 0.00 | 66 | 998.0 |
| 20260904110051 | 60 | 54 | 5.0 | 11.0 | 0.00 | 0.07 | 0.00 | 66 | 998.0 |
| 20260904105534 | 62 | 50 | 3.0 | 8.0 | 0.00 | 0.07 | 0.00 | 66 | 998.0 |
| 20260904105030 | 61 | 277 | 3.0 | 7.0 | 0.00 | 0.07 | 0.00 | 60 | 998.0 |
| 20260904104545 | 60 | 0 | 1.0 | 4.0 | 0.00 | 0.07 | 0.00 | 62 | 998.1 |